Location: Poughquag
(41.6090°N, 73.6820°W)
Time: 22:59:16
(UTC-04:00)

X-37B - Pass Details

Date: 15 June 2023
Orbit: 277 x 277 km, 45.0° (Epoch: 01 November)

Event Time Altitude Azimuth Distance (km) Brightness Sun altitude
Exits shadow 04:15:53 - 286° (WNW) 1,463 3.2 -10.2°
Reaches altitude 10° 04:16:47 10° 292° (WNW) 1,101 2.6 -10.1°
Maximum altitude 04:19:04 33° 1° (N) 494 1.6 -9.8°
Drops below altitude 10° 04:21:20 10° 69° (ENE) 1,101 4.1 -9.5°
Sets 04:23:21 0° 79° (E) 1,914 5.2 -9.2°
